Regional Weather Roundup
Issued by NWS

Home | Current Version | Previous Version | Graphics & Text | Print | Product List | Glossary On
Versions: 1 2 3 4 5 6 7 8 9 10 11 12 13 14 15 16 17 18 19 20 21 22 23 24 25 26 27 28 29 30 31 32 33 34 35 36 37 38 39 40 41 42 43 44 45 46 47 48 49 50
000
ASUS43 KBIS 011010
RWRND

NORTH DAKOTA REGIONAL WEATHER ROUNDUP
NATIONAL WEATHER SERVICE BISMARCK ND
500 AM CDT WED JUL 01 2015

NOTE: "FAIR" INDICATES FEW OR NO CLOUDS BELOW 12,000 FEET WITH NO
SIGNIFICANT WEATHER AND/OR OBSTRUCTIONS TO VISIBILITY.


NDZ001>003-009>011-017-011100-
NORTHWEST NORTH DAKOTA

CITY           SKY/WX    TMP DP  RH WIND       PRES   REMARKS
WILLISTON      CLOUDY    60  59  96 NE7       29.95S FOG
MINOT          FOG       62  61  96 NW5       29.92S VSB 1/4
MINOT AFB      FOG       63  63 100 N5        29.92S VSB 1/4
$$

NDZ018>021-031>035-040>046-011100-
SOUTHWEST NORTH DAKOTA

CITY           SKY/WX    TMP DP  RH WIND       PRES   REMARKS
BISMARCK       MOCLDY    62  60  93 CALM      29.91R
DICKINSON      CLOUDY    61  60  97 SE6       29.91R FOG
GARRISON         N/A     60  59  96 NE5       29.93R
HETTINGER ARPT FOG       60  59  96 E6        29.91S VSB 1/4
$$

NDZ004>008-012>016-024-026-027-054-011100-
NORTHEAST NORTH DAKOTA

CITY           SKY/WX    TMP DP  RH WIND       PRES   REMARKS
GRAND FORKS    CLEAR     57  54  89 CALM      29.92S
GRND FRKS AFB  FOG       55  54  98 N2        29.93S VSB 1/2
DEVILS LAKE    CLEAR     57  54  88 CALM      29.93F
$$

NDZ022-023-025-028>030-036>039-047>053-011100-
SOUTHEAST NORTH DAKOTA

CITY           SKY/WX    TMP DP  RH WIND       PRES   REMARKS
FARGO          MOCLDY    63  59  87 SW5       29.92S
JAMESTOWN      CLOUDY    63  61  93 E8        29.92R
$$




USA.gov is the U.S. government's official web portal to all federal, state and local government web resources and services.